﻿測定場所 (Monitoring sites),日付 (Measurement date),時間 (Measurement time),線量率 最大値 (max) μGy/h,線量率 最小値 (min) μGy/h,線量率 平均値 (average) μGy/h,
大田 (Ota),2013-02-03,23:01～24:00,0.0527,0.0467,0.0503,
大田 (Ota),2013-02-03,22:01～23:00,0.0530,0.0473,0.0501,
大田 (Ota),2013-02-03,21:01～22:00,0.0528,0.0472,0.0503,
大田 (Ota),2013-02-03,20:01～21:00,0.0535,0.0467,0.0507,
大田 (Ota),2013-02-03,19:01～20:00,0.0545,0.0475,0.0504,
大田 (Ota),2013-02-03,18:01～19:00,0.0535,0.0461,0.0497,
大田 (Ota),2013-02-03,17:01～18:00,0.0546,0.0476,0.0504,
大田 (Ota),2013-02-03,16:01～17:00,0.0541,0.0478,0.0504,
大田 (Ota),2013-02-03,15:01～16:00,0.0528,0.0473,0.0502,
大田 (Ota),2013-02-03,14:01～15:00,0.0533,0.0473,0.0502,
大田 (Ota),2013-02-03,13:01～14:00,0.0540,0.0474,0.0504,
大田 (Ota),2013-02-03,12:01～13:00,0.0569,0.0467,0.0507,
大田 (Ota),2013-02-03,11:01～12:00,0.0539,0.0473,0.0506,
大田 (Ota),2013-02-03,10:01～11:00,0.0540,0.0470,0.0505,
大田 (Ota),2013-02-03,09:01～10:00,0.0541,0.0480,0.0506,
大田 (Ota),2013-02-03,08:01～09:00,0.0534,0.0475,0.0501,
大田 (Ota),2013-02-03,07:01～08:00,0.0534,0.0471,0.0502,
大田 (Ota),2013-02-03,06:01～07:00,0.0531,0.0471,0.0499,
大田 (Ota),2013-02-03,05:01～06:00,0.0536,0.0462,0.0496,
大田 (Ota),2013-02-03,04:01～05:00,0.0531,0.0469,0.0503,
大田 (Ota),2013-02-03,03:01～04:00,0.0530,0.0469,0.0505,
大田 (Ota),2013-02-03,02:01～03:00,0.0555,0.0466,0.0512,
大田 (Ota),2013-02-03,01:01～02:00,0.0555,0.0483,0.0511,
大田 (Ota),2013-02-03,00:01～01:00,0.0540,0.0472,0.0511,
大田 (Ota),2013-02-02,23:01～24:00,0.0537,0.0473,0.0503,
大田 (Ota),2013-02-02,22:01～23:00,0.0532,0.0471,0.0502,
大田 (Ota),2013-02-02,21:01～22:00,0.0535,0.0473,0.0501,
大田 (Ota),2013-02-02,20:01～21:00,0.0537,0.0475,0.0503,
大田 (Ota),2013-02-02,19:01～20:00,0.0547,0.0476,0.0502,
大田 (Ota),2013-02-02,18:01～19:00,0.0543,0.0466,0.0506,
大田 (Ota),2013-02-02,17:01～18:00,0.0540,0.0451,0.0503,
大田 (Ota),2013-02-02,16:01～17:00,0.0535,0.0477,0.0502,
大田 (Ota),2013-02-02,15:01～16:00,0.0532,0.0464,0.0497,
大田 (Ota),2013-02-02,14:01～15:00,0.0530,0.0461,0.0500,
大田 (Ota),2013-02-02,13:01～14:00,0.0527,0.0456,0.0497,
大田 (Ota),2013-02-02,12:01～13:00,0.0538,0.0475,0.0502,
大田 (Ota),2013-02-02,11:01～12:00,0.0568,0.0464,0.0521,
大田 (Ota),2013-02-02,10:01～11:00,0.0569,0.0517,0.0547,
大田 (Ota),2013-02-02,09:01～10:00,0.0570,0.0508,0.0540,
大田 (Ota),2013-02-02,08:01～09:00,0.0554,0.0487,0.0521,
大田 (Ota),2013-02-02,07:01～08:00,0.0541,0.0476,0.0510,
大田 (Ota),2013-02-02,06:01～07:00,0.0529,0.0464,0.0501,
大田 (Ota),2013-02-02,05:01～06:00,0.0531,0.0462,0.0500,
大田 (Ota),2013-02-02,04:01～05:00,0.0531,0.0473,0.0499,
大田 (Ota),2013-02-02,03:01～04:00,0.0531,0.0463,0.0500,
大田 (Ota),2013-02-02,02:01～03:00,0.0538,0.0474,0.0498,
大田 (Ota),2013-02-02,01:01～02:00,0.0528,0.0462,0.0497,
大田 (Ota),2013-02-02,00:01～01:00,0.0539,0.0458,0.0499,
大田 (Ota),2013-02-01,23:01～24:00,0.0535,0.0457,0.0500,
大田 (Ota),2013-02-01,22:01～23:00,0.0529,0.0469,0.0499,
大田 (Ota),2013-02-01,21:01～22:00,0.0553,0.0474,0.0507,
大田 (Ota),2013-02-01,20:01～21:00,0.0551,0.0482,0.0512,
大田 (Ota),2013-02-01,19:01～20:00,0.0556,0.0489,0.0521,
大田 (Ota),2013-02-01,18:01～19:00,0.0552,0.0467,0.0508,
大田 (Ota),2013-02-01,17:01～18:00,0.0530,0.0462,0.0501,
大田 (Ota),2013-02-01,16:01～17:00,0.0541,0.0472,0.0503,
大田 (Ota),2013-02-01,15:01～16:00,0.0530,0.0451,0.0496,
大田 (Ota),2013-02-01,14:01～15:00,0.0531,0.0460,0.0499,
大田 (Ota),2013-02-01,13:01～14:00,0.0540,0.0450,0.0505,
大田 (Ota),2013-02-01,12:01～13:00,0.0530,0.0468,0.0503,
大田 (Ota),2013-02-01,11:01～12:00,0.0540,0.0481,0.0504,
大田 (Ota),2013-02-01,10:01～11:00,0.0542,0.0479,0.0508,
大田 (Ota),2013-02-01,09:01～10:00,0.0541,0.0461,0.0507,
大田 (Ota),2013-02-01,08:01～09:00,0.0553,0.0472,0.0508,
大田 (Ota),2013-02-01,07:01～08:00,0.0542,0.0476,0.0509,
大田 (Ota),2013-02-01,06:01～07:00,0.0541,0.0481,0.0511,
大田 (Ota),2013-02-01,05:01～06:00,0.0547,0.0471,0.0507,
大田 (Ota),2013-02-01,04:01～05:00,0.0538,0.0472,0.0508,
大田 (Ota),2013-02-01,03:01～04:00,0.0541,0.0468,0.0506,
大田 (Ota),2013-02-01,02:01～03:00,0.0534,0.0454,0.0500,
大田 (Ota),2013-02-01,01:01～02:00,0.0526,0.0461,0.0498,
大田 (Ota),2013-02-01,00:01～01:00,0.0533,0.0460,0.0496,
大田 (Ota),2013-01-31,23:01～24:00,0.0541,0.0458,0.0497,
大田 (Ota),2013-01-31,22:01～23:00,0.0538,0.0462,0.0499,
大田 (Ota),2013-01-31,21:01～22:00,0.0543,0.0474,0.0496,
大田 (Ota),2013-01-31,20:01～21:00,0.0525,0.0470,0.0498,
大田 (Ota),2013-01-31,19:01～20:00,0.0543,0.0456,0.0499,
大田 (Ota),2013-01-31,18:01～19:00,0.0520,0.0455,0.0496,
大田 (Ota),2013-01-31,17:01～18:00,0.0530,0.0469,0.0498,
大田 (Ota),2013-01-31,16:01～17:00,0.0549,0.0467,0.0498,
大田 (Ota),2013-01-31,15:01～16:00,0.0533,0.0473,0.0502,
大田 (Ota),2013-01-31,14:01～15:00,0.0545,0.0465,0.0494,
大田 (Ota),2013-01-31,13:01～14:00,0.0526,0.0474,0.0501,
大田 (Ota),2013-01-31,12:01～13:00,0.0550,0.0475,0.0505,
大田 (Ota),2013-01-31,11:01～12:00,0.0528,0.0475,0.0502,
大田 (Ota),2013-01-31,10:01～11:00,0.0537,0.0473,0.0505,
大田 (Ota),2013-01-31,09:01～10:00,0.0538,0.0475,0.0504,
大田 (Ota),2013-01-31,08:01～09:00,0.0529,0.0470,0.0502,
大田 (Ota),2013-01-31,07:01～08:00,0.0533,0.0452,0.0501,
大田 (Ota),2013-01-31,06:01～07:00,0.0533,0.0463,0.0500,
大田 (Ota),2013-01-31,05:01～06:00,0.0538,0.0465,0.0503,
大田 (Ota),2013-01-31,04:01～05:00,0.0534,0.0469,0.0502,
大田 (Ota),2013-01-31,03:01～04:00,0.0544,0.0468,0.0503,
大田 (Ota),2013-01-31,02:01～03:00,0.0528,0.0475,0.0505,
大田 (Ota),2013-01-31,01:01～02:00,0.0537,0.0471,0.0503,
大田 (Ota),2013-01-31,00:01～01:00,0.0536,0.0473,0.0504,
大田 (Ota),2013-01-30,23:01～24:00,0.0530,0.0477,0.0504,
大田 (Ota),2013-01-30,22:01～23:00,0.0536,0.0474,0.0506,
大田 (Ota),2013-01-30,21:01～22:00,0.0536,0.0478,0.0504,
大田 (Ota),2013-01-30,20:01～21:00,0.0541,0.0474,0.0502,
大田 (Ota),2013-01-30,19:01～20:00,0.0560,0.0474,0.0507,
大田 (Ota),2013-01-30,18:01～19:00,0.0546,0.0467,0.0507,
大田 (Ota),2013-01-30,17:01～18:00,0.0536,0.0472,0.0505,
大田 (Ota),2013-01-30,16:01～17:00,0.0532,0.0467,0.0505,
大田 (Ota),2013-01-30,15:01～16:00,0.0525,0.0471,0.0497,
大田 (Ota),2013-01-30,14:01～15:00,0.0535,0.0462,0.0500,
大田 (Ota),2013-01-30,13:01～14:00,0.0554,0.0472,0.0503,
大田 (Ota),2013-01-30,12:01～13:00,0.0550,0.0468,0.0509,
大田 (Ota),2013-01-30,11:01～12:00,0.0545,0.0471,0.0506,
大田 (Ota),2013-01-30,10:01～11:00,0.0536,0.0466,0.0507,
大田 (Ota),2013-01-30,09:01～10:00,0.0536,0.0477,0.0509,
大田 (Ota),2013-01-30,08:01～09:00,0.0540,0.0466,0.0504,
大田 (Ota),2013-01-30,07:01～08:00,0.0541,0.0471,0.0509,
大田 (Ota),2013-01-30,06:01～07:00,0.0557,0.0489,0.0515,
大田 (Ota),2013-01-30,05:01～06:00,0.0552,0.0472,0.0516,
大田 (Ota),2013-01-30,04:01～05:00,0.0560,0.0477,0.0507,
大田 (Ota),2013-01-30,03:01～04:00,0.0556,0.0478,0.0506,
大田 (Ota),2013-01-30,02:01～03:00,0.0540,0.0477,0.0503,
大田 (Ota),2013-01-30,01:01～02:00,0.0540,0.0472,0.0505,
大田 (Ota),2013-01-30,00:01～01:00,0.0559,0.0474,0.0503,
大田 (Ota),2013-01-29,23:01～24:00,0.0524,0.0464,0.0501,
大田 (Ota),2013-01-29,22:01～23:00,0.0534,0.0473,0.0500,
大田 (Ota),2013-01-29,21:01～22:00,0.0530,0.0465,0.0504,
大田 (Ota),2013-01-29,20:01～21:00,0.0526,0.0471,0.0502,
大田 (Ota),2013-01-29,19:01～20:00,0.0546,0.0461,0.0504,
大田 (Ota),2013-01-29,18:01～19:00,0.0535,0.0471,0.0504,
大田 (Ota),2013-01-29,17:01～18:00,0.0531,0.0475,0.0503,
大田 (Ota),2013-01-29,16:01～17:00,0.0535,0.0461,0.0501,
大田 (Ota),2013-01-29,15:01～16:00,0.0543,0.0475,0.0504,
大田 (Ota),2013-01-29,14:01～15:00,0.0529,0.0473,0.0502,
大田 (Ota),2013-01-29,13:01～14:00,0.0543,0.0476,0.0513,
大田 (Ota),2013-01-29,12:01～13:00,0.0527,0.0477,0.0505,
大田 (Ota),2013-01-29,11:01～12:00,0.0547,0.0475,0.0511,
大田 (Ota),2013-01-29,10:01～11:00,0.0541,0.0483,0.0509,
大田 (Ota),2013-01-29,09:01～10:00,0.0552,0.0474,0.0508,
大田 (Ota),2013-01-29,08:01～09:00,0.0530,0.0466,0.0502,
大田 (Ota),2013-01-29,07:01～08:00,0.0523,0.0463,0.0497,
大田 (Ota),2013-01-29,06:01～07:00,0.0539,0.0460,0.0495,
大田 (Ota),2013-01-29,05:01～06:00,0.0528,0.0462,0.0498,
大田 (Ota),2013-01-29,04:01～05:00,0.0552,0.0468,0.0498,
大田 (Ota),2013-01-29,03:01～04:00,0.0536,0.0478,0.0502,
大田 (Ota),2013-01-29,02:01～03:00,0.0529,0.0461,0.0497,
大田 (Ota),2013-01-29,01:01～02:00,0.0530,0.0461,0.0498,
大田 (Ota),2013-01-29,00:01～01:00,0.0542,0.0472,0.0500,
大田 (Ota),2013-01-28,23:01～24:00,0.0547,0.0458,0.0500,
大田 (Ota),2013-01-28,22:01～23:00,0.0529,0.0464,0.0497,
大田 (Ota),2013-01-28,21:01～22:00,0.0524,0.0464,0.0498,
大田 (Ota),2013-01-28,20:01～21:00,0.0528,0.0471,0.0499,
大田 (Ota),2013-01-28,19:01～20:00,0.0530,0.0467,0.0498,
大田 (Ota),2013-01-28,18:01～19:00,0.0530,0.0467,0.0501,
大田 (Ota),2013-01-28,17:01～18:00,0.0545,0.0465,0.0505,
大田 (Ota),2013-01-28,16:01～17:00,0.0525,0.0459,0.0497,
大田 (Ota),2013-01-28,15:01～16:00,0.0541,0.0458,0.0503,
大田 (Ota),2013-01-28,14:01～15:00,0.0542,0.0465,0.0502,
大田 (Ota),2013-01-28,13:01～14:00,0.0538,0.0475,0.0511,
大田 (Ota),2013-01-28,12:01～13:00,0.0537,0.0473,0.0505,
大田 (Ota),2013-01-28,11:01～12:00,0.0541,0.0481,0.0507,
大田 (Ota),2013-01-28,10:01～11:00,0.0545,0.0461,0.0505,
大田 (Ota),2013-01-28,09:01～10:00,0.0536,0.0469,0.0505,
大田 (Ota),2013-01-28,08:01～09:00,0.0539,0.0467,0.0504,
大田 (Ota),2013-01-28,07:01～08:00,0.0540,0.0471,0.0497,
大田 (Ota),2013-01-28,06:01～07:00,0.0528,0.0473,0.0503,
大田 (Ota),2013-01-28,05:01～06:00,0.0556,0.0476,0.0507,
大田 (Ota),2013-01-28,04:01～05:00,0.0543,0.0464,0.0505,
大田 (Ota),2013-01-28,03:01～04:00,0.0546,0.0476,0.0510,
大田 (Ota),2013-01-28,02:01～03:00,0.0552,0.0473,0.0513,
大田 (Ota),2013-01-28,01:01～02:00,0.0571,0.0473,0.0514,
大田 (Ota),2013-01-28,00:01～01:00,0.0532,0.0469,0.0503,
